• In Portugal
  • List of Countries
  • For 7 days
  • Water Temperature
  • Satellite Maps
  • Weather Map
  • Weather Widgets
  • user-avatar
    Login

    Hourly Weather Biratnagar

    Today, 16 December, Saturday

    Time Temperature Precipitation Wind Pressure Humidity
    00:00 +18°C° 0 mm 2 mps 756 mmHg 70%
    01:00 +18°C° 0 mm 2 mps 756 mmHg 72%
    02:00 +18°C° 0 mm 2 mps 756 mmHg 74%
    03:00 +18°C° 0 mm 2 mps 756 mmHg 76%
    04:00 +18°C° 0 mm 1 mps 756 mmHg 76%
    05:00 +18°C° 0 mm 1 mps 756 mmHg 76%
    06:00 +18°C° 0 mm 1 mps 756 mmHg 76%
    07:00 +19°C° 0 mm 1 mps 756 mmHg 70%
    08:00 +21°C° 0 mm 1 mps 756 mmHg 63%
    09:00 +20°C° 0 mm 0 mps 757 mmHg 57%
    10:00 +24°C° 0 mm 1 mps 756 mmHg 52%
    11:00 +25°C° 0 mm 1 mps 756 mmHg 47%
    12:00 +27°C° 0 mm 1 mps 756 mmHg 41%
    13:00 +27°C° 0 mm 1 mps 755 mmHg 40%
    14:00 +28°C° 0 mm 1 mps 755 mmHg 38%
    15:00 +28°C° 0 mm 1 mps 755 mmHg 36%
    16:00 +26°C° 0 mm 1 mps 755 mmHg 40%
    17:00 +25°C° 0 mm 1 mps 755 mmHg 44%
    18:00 +23°C° 0 mm 1 mps 756 mmHg 47%
    19:00 +22°C° 0 mm 1 mps 756 mmHg 49%
    20:00 +21°C° 0 mm 1 mps 757 mmHg 51%
    21:00 +21°C° 0 mm 1 mps 757 mmHg 52%
    22:00 +19°C° 0 mm 2 mps 757 mmHg 54%
    23:00 +19°C° 0 mm 2 mps 757 mmHg 56%

    Tomorrow, 17 December, Sunday

    Time Temperature Precipitation Wind Pressure Humidity
    00:00 +19°C° 0 mm 2 mps 757 mmHg 58%
    01:00 +18°C° 0 mm 2 mps 757 mmHg 59%
    02:00 +19°C° 0 mm 1 mps 757 mmHg 60%
    03:00 +19°C° 0 mm 1 mps 757 mmHg 61%
    04:00 +18°C° 0 mm 1 mps 757 mmHg 61%
    05:00 +18°C° 0 mm 1 mps 757 mmHg 61%
    06:00 +18°C° 0 mm 1 mps 757 mmHg 61%
    07:00 +20°C° 0 mm 1 mps 757 mmHg 58%
    08:00 +21°C° 0 mm 1 mps 758 mmHg 54%
    09:00 +23°C° 0 mm 1 mps 759 mmHg 50%
    10:00 +24°C° 0 mm 1 mps 758 mmHg 48%
    11:00 +26°C° 0 mm 1 mps 758 mmHg 46%
    12:00 +27°C° 0 mm 1 mps 758 mmHg 44%
    13:00 +27°C° 0 mm 2 mps 757 mmHg 43%
    14:00 +28°C° 0 mm 2 mps 756 mmHg 42%
    15:00 +28°C° 0 mm 2 mps 756 mmHg 41%
    16:00 +26°C° 0 mm 2 mps 756 mmHg 44%
    17:00 +25°C° 0 mm 2 mps 756 mmHg 47%
    18:00 +23°C° 0 mm 2 mps 756 mmHg 50%
    19:00 +21°C° 0 mm 2 mps 757 mmHg 50%
    20:00 +20°C° 0 mm 2 mps 757 mmHg 51%
    21:00 +20°C° 0 mm 2 mps 758 mmHg 51%
    22:00 +20°C° 0 mm 1 mps 758 mmHg 53%
    23:00 +20°C° 0 mm 1 mps 757 mmHg 55%

    Day after tomorrow, 18 December, Monday

    Time Temperature Precipitation Wind Pressure Humidity
    00:00 +19°C° 0 mm 1 mps 757 mmHg 57%
    01:00 +19°C° 0 mm 1 mps 757 mmHg 60%
    02:00 +19°C° 0 mm 1 mps 757 mmHg 62%
    03:00 +19°C° 0 mm 1 mps 756 mmHg 64%
    04:00 +18°C° 0 mm 1 mps 756 mmHg 65%
    05:00 +18°C° 0 mm 1 mps 757 mmHg 66%
    06:00 +18°C° 0 mm 1 mps 757 mmHg 68%
    07:00 +19°C° 0 mm 1 mps 757 mmHg 64%
    08:00 +21°C° 0 mm 1 mps 758 mmHg 60%
    09:00 +22°C° 0 mm 1 mps 758 mmHg 56%
    10:00 +24°C° 0 mm 1 mps 758 mmHg 52%
    11:00 +25°C° 0 mm 1 mps 758 mmHg 49%
    12:00 +27°C° 0 mm 1 mps 758 mmHg 45%
    13:00 +27°C° 0 mm 1 mps 757 mmHg 44%
    14:00 +27°C° 0 mm 2 mps 756 mmHg 43%
    15:00 +28°C° 0 mm 2 mps 756 mmHg 41%
    16:00 +26°C° 0 mm 2 mps 756 mmHg 45%
    17:00 +25°C° 0 mm 2 mps 756 mmHg 48%
    18:00 +23°C° 0 mm 1 mps 756 mmHg 52%
    19:00 +22°C° 0 mm 1 mps 757 mmHg 54%
    20:00 +21°C° 0 mm 1 mps 757 mmHg 55%
    21:00 +21°C° 0 mm 1 mps 758 mmHg 56%
    22:00 +20°C° 0 mm 1 mps 758 mmHg 58%
    23:00 +20°C° 0 mm 1 mps 757 mmHg 60%

    19 December, Tuesday

    Time Temperature Precipitation Wind Pressure Humidity
    00:00 +19°C° 0 mm 1 mps 757 mmHg 61%
    01:00 +19°C° 0 mm 1 mps 757 mmHg 63%
    02:00 +19°C° 0 mm 1 mps 756 mmHg 65%
    03:00 +18°C° 0 mm 1 mps 756 mmHg 66%
    04:00 +18°C° 0 mm 1 mps 756 mmHg 68%
    05:00 +18°C° 0 mm 1 mps 756 mmHg 69%
    06:00 +18°C° 0 mm 1 mps 756 mmHg 71%
    07:00 +19°C° 0 mm 1 mps 757 mmHg 66%
    08:00 +21°C° 0 mm 1 mps 758 mmHg 61%
    09:00 +22°C° 0 mm 1 mps 758 mmHg 56%
    10:00 +24°C° 0 mm 1 mps 758 mmHg 51%
    11:00 +25°C° 0 mm 1 mps 758 mmHg 46%
    12:00 +27°C° 0 mm 1 mps 758 mmHg 41%
    13:00 +27°C° 0 mm 1 mps 757 mmHg 39%
    14:00 +27°C° 0 mm 1 mps 756 mmHg 38%
    15:00 +28°C° 0 mm 2 mps 756 mmHg 36%
    16:00 +26°C° 0 mm 1 mps 756 mmHg 40%
    17:00 +24°C° 0 mm 1 mps 756 mmHg 44%
    18:00 +23°C° 0 mm 1 mps 756 mmHg 47%
    19:00 +22°C° 0 mm 1 mps 757 mmHg 49%
    20:00 +21°C° 0 mm 1 mps 757 mmHg 51%
    21:00 +21°C° 0 mm 1 mps 758 mmHg 52%
    22:00 +20°C° 0 mm 1 mps 758 mmHg 53%
    23:00 +20°C° 0 mm 1 mps 758 mmHg 55%

    20 December, Wednesday

    Time Temperature Precipitation Wind Pressure Humidity
    00:00 +20°C° 0 mm 1 mps 758 mmHg 56%
    01:00 +19°C° 0 mm 1 mps 757 mmHg 57%
    02:00 +19°C° 0 mm 1 mps 757 mmHg 59%
    03:00 +19°C° 0 mm 1 mps 757 mmHg 61%
    04:00 +18°C° 0 mm 1 mps 757 mmHg 62%
    05:00 +18°C° 0 mm 1 mps 757 mmHg 63%
    06:00 +18°C° 0 mm 1 mps 757 mmHg 64%
    07:00 +20°C° 0 mm 1 mps 758 mmHg 60%
    08:00 +21°C° 0 mm 1 mps 759 mmHg 56%
    09:00 +23°C° 0 mm 1 mps 759 mmHg 51%
    10:00 +24°C° 0 mm 1 mps 759 mmHg 47%
    11:00 +26°C° 0 mm 1 mps 759 mmHg 43%
    12:00 +28°C° 0 mm 1 mps 758 mmHg 39%
    13:00 +28°C° 0 mm 1 mps 758 mmHg 38%
    14:00 +28°C° 0 mm 1 mps 757 mmHg 37%
    15:00 +29°C° 0 mm 1 mps 756 mmHg 35%
    16:00 +27°C° 0 mm 1 mps 757 mmHg 39%
    17:00 +25°C° 0 mm 1 mps 757 mmHg 43%
    18:00 +24°C° 0 mm 1 mps 757 mmHg 47%
    19:00 +23°C° 0 mm 1 mps 758 mmHg 49%
    20:00 +22°C° 0 mm 1 mps 758 mmHg 50%
    21:00 +20°C° 0 mm 2 mps 758 mmHg 52%
    22:00 +20°C° 0 mm 2 mps 758 mmHg 53%
    23:00 +20°C° 0 mm 2 mps 758 mmHg 54%

    21 December, Thursday

    Time Temperature Precipitation Wind Pressure Humidity
    00:00 +20°C° 0 mm 1 mps 758 mmHg 55%
    01:00 +20°C° 0 mm 1 mps 758 mmHg 56%
    02:00 +19°C° 0 mm 1 mps 757 mmHg 57%
    03:00 +19°C° 0 mm 1 mps 757 mmHg 58%
    04:00 +19°C° 0 mm 1 mps 757 mmHg 59%
    05:00 +19°C° 0 mm 1 mps 757 mmHg 60%
    06:00 +18°C° 0 mm 1 mps 757 mmHg 61%
    07:00 +20°C° 0 mm 1 mps 757 mmHg 56%
    08:00 +21°C° 0 mm 1 mps 758 mmHg 52%
    09:00 +21°C° 0 mm 0 mps 758 mmHg 48%
    10:00 +24°C° 0 mm 1 mps 758 mmHg 44%
    11:00 +26°C° 0 mm 1 mps 757 mmHg 41%
    12:00 +27°C° 0 mm 1 mps 757 mmHg 37%
    13:00 +28°C° 0 mm 1 mps 756 mmHg 36%
    14:00 +28°C° 0 mm 2 mps 756 mmHg 35%
    15:00 +28°C° 0 mm 2 mps 755 mmHg 35%
    16:00 +26°C° 0 mm 2 mps 755 mmHg 38%
    17:00 +25°C° 0 mm 2 mps 755 mmHg 42%
    18:00 +23°C° 0 mm 1 mps 755 mmHg 45%
    19:00 +21°C° 0 mm 2 mps 756 mmHg 47%
    20:00 +21°C° 0 mm 2 mps 756 mmHg 48%
    21:00 +20°C° 0 mm 2 mps 756 mmHg 50%
    22:00 +19°C° 0 mm 2 mps 756 mmHg 52%
    23:00 +20°C° 0 mm 1 mps 756 mmHg 53%
    Show more